Location: Bothwell
(42.3833°S, 147.0000°E)
Time: 01:14:06
(UTC+11:00)

UNISAT 6 - Pass Details

Date: 04 October 2022
Orbit: 604 x 683 km, 97.7° (Epoch: 04 December)

Event Time Altitude Azimuth Distance (km) Brightness Sun altitude
Rises 19:52:11 0° 320° (NW) 2,878 ? -6.4°
Reaches altitude 10° 19:56:19 10° 280° (W) 2,005 ? -7.2°
Maximum altitude 19:57:14 11° 268° (W) 1,974 ? -7.3°
Drops below altitude 10° 19:58:10 10° 255° (WSW) 2,020 ? -7.5°
Sets 20:02:26 0° 216° (SW) 2,966 ? -8.3°
